Wetbulb
60.28 60.34 60.27 60.27 60.49 60.67 60.51 59.99 60.49 61.00 60.34 60.32 60.49 60.37 61.42 61.42 60.87 61.36 58.23 67.52 69.25 75.45 73.85 69.62 70.22 69.91 69.19 66.64 66.98 67.80 58.91 56.04 59.16 60.18 61.84 66.25 64.46 67.60 69.18 66.37 66.15 66.52 68.62 70.60 71.99
59.80 59.84 59.84 59.73 60.14 59.99 59.78 59.46 59.57 59.84 60.00 59.95 60.23 60.49 61.41 61.51 60.46 58.70 69.45 74.05 73.41 73.98 63.72 65.90 66.23 66.35 64.03 63.69 65.57 63.76 59.28 59.18 64.53 64.72 62.93 65.19 65.52 65.83 64.35 64.66 64.08 66.62 70.04 71.32 71.51
59.54 59.49 59.48 59.44 59.73 59.99 59.66 59.53 59.09 58.92 59.08 59.60 60.07 60.70 61.45 61.80 60.02 61.51 73.24 74.37 73.99 72.44 65.23 67.89 66.37 62.75 61.24 62.80 63.84 64.13 60.98 64.75 65.17 65.93 66.22 65.03 64.55 66.22 64.21 62.08 64.19 65.00 66.82 70.04 70.23
59.10 59.17 59.26 59.39 59.48 59.61 59.69 59.69 59.40 58.64 58.82 59.11 60.03 60.99 61.56 63.11 56.01 63.18 72.75 74.29 74.10 66.50 65.32 65.73 62.84 59.83 59.63 59.99 64.56 60.71 60.30 63.10 65.84 66.77 65.19 64.56 65.51 64.61 64.59 63.64 66.79 67.61 68.22 69.41 68.96
58.57 58.69 58.90 58.92 59.12 59.25 59.23 59.07 58.54 58.22 58.59 59.00 60.08 61.28 62.43 59.44 59.31 66.28 73.46 70.89 63.63 63.67 65.17 62.86 60.80 60.54 57.80 61.18 64.17 62.85 64.69 66.33 66.91 66.30 66.15 66.63 64.56 64.56 62.79 64.98 66.30 68.21 67.83 67.57 67.71
58.34 58.59 58.56 58.54 58.63 58.68 58.74 58.32 58.04 58.05 58.40 59.31 60.32 61.05 60.79 56.30 66.35 65.28 62.98 62.43 62.86 63.85 64.91 63.04 61.31 62.12 60.05 60.43 63.24 61.92 63.38 65.29 65.27 65.96 65.76 64.39 64.98 65.68 64.12 65.91 66.37 66.98 66.71 67.14 68.11
58.26 58.44 58.58 58.43 58.38 58.21 57.98 57.43 57.44 57.95 58.61 59.51 60.70 63.00 59.67 59.25 64.80 67.85 66.00 63.93 63.69 65.45 62.63 63.50 63.13 61.21 61.93 60.44 65.51 64.21 62.04 61.40 58.78 62.91 64.41 65.84 62.17 61.81 67.13 67.67 65.22 65.91 66.67 66.69 67.09
58.13 58.39 58.23 58.02 57.98 57.32 56.96 56.83 57.72 58.52 59.50 60.66 61.87 62.54 56.65 63.11 65.91 64.22 66.58 65.02 64.90 65.29 63.63 63.63 63.05 61.61 60.62 62.18 62.29 61.66 62.50 56.00 59.62 64.11 65.38 64.66 57.79 64.11 67.45 65.63 64.77 65.57 66.18 66.31 67.58
58.25 58.21 57.98 57.86 57.09 56.80 56.25 57.07 59.80 61.58 61.98 61.48 61.85 61.75 56.79 64.44 61.05 63.44 65.70 62.76 63.30 63.53 63.73 63.43 61.81 59.95 60.62 58.44 56.63 58.95 53.44 57.42 60.17 62.85 64.55 63.01 59.70 64.59 67.27 64.38 64.43 65.50 65.38 65.83 66.82
57.72 57.78 57.55 57.51 56.43 55.99 55.51 56.89 61.21 60.50 61.83 63.61 63.35 60.35 61.20 58.67 60.45 60.79 65.01 63.54 60.85 61.06 60.24 59.73 58.66 56.74 57.70 56.79 51.21 54.52 54.29 56.00 59.11 63.08 62.72 61.85 61.21 64.45 65.96 64.84 64.99 64.35 64.58 66.20 65.86
57.36 57.21 57.05 56.98 56.15 55.43 57.12 63.99 60.91 59.84 61.79 58.04 58.84 57.86 59.89 61.31 62.19 58.93 63.73 61.90 61.15 59.03 55.14 57.79 54.26 52.39 55.24 57.82 57.90 57.20 55.17 54.47 57.97 62.36 60.13 60.34 61.40 63.15 66.02 65.55 64.62 64.22 65.77 64.51 66.62
57.10 56.93 56.66 56.62 55.95 55.08 57.34 59.57 60.36 62.21 57.17 62.26 59.22 61.43 61.40 60.47 55.60 58.19 63.34 58.53 57.13 54.29 56.22 54.38 52.53 55.91 57.17 56.94 55.88 55.64 54.44 54.78 57.19 59.53 59.48 59.11 59.02 62.78 65.52 65.58 65.02 65.91 65.09 64.45 65.97
56.73 56.53 56.26 55.79 55.06 56.21 61.70 61.49 65.39 62.92 55.66 56.67 60.16 58.77 60.70 60.80 57.62 58.04 60.65 58.96 56.52 54.63 54.95 52.68 54.02 56.84 55.92 54.40 54.21 54.14 53.51 54.44 54.49 56.35 57.02 58.24 56.82 57.00 59.41 66.33 66.06 66.15 66.67 66.40 66.98
56.32 56.20 55.59 54.29 54.89 65.21 63.68 65.57 64.83 63.60 52.51 54.77 55.66 58.54 59.67 60.55 56.63 60.91 61.01 59.18 56.85 54.58 56.29 55.54 56.82 54.84 54.29 53.15 54.30 51.44 56.46 56.33 54.94 53.06 49.57 58.48 49.63 55.68 56.41 55.00 61.28 65.19 65.35 66.45 66.44
56.10 55.69 54.25 53.68 58.44 62.67 65.04 65.02 64.18 61.57 45.61 55.59 56.00 61.02 59.02 57.68 58.15 57.42 62.46 59.93 55.37 55.97 56.25 54.11 55.34 53.93 52.77 53.05 54.87 52.75 56.71 55.08 55.06 53.28 52.97 54.71 52.62 56.44 56.29 55.00 56.39 64.99 65.69 66.63 67.09
55.24 54.53 53.68 56.78 58.94 62.78 67.12 64.92 62.14 51.80 46.07 53.29 56.53 55.60 54.42 56.92 57.04 58.81 58.61 61.55 60.24 56.11 56.98 56.31 58.35 56.13 54.59 55.28 55.58 55.87 55.36 54.95 54.59 53.91 48.75 52.78 53.32 54.50 56.28 56.87 60.51 64.17 66.34 67.26 67.45
53.88 52.90 54.11 62.29 63.53 66.07 66.21 62.12 52.27 47.63 55.74 53.20 54.33 56.41 54.22 53.64 54.57 55.99 55.66 54.97 53.28 51.14 51.73 54.35 54.43 55.84 56.15 52.45 54.09 53.99 52.71 47.50 46.50 47.80 47.73 52.68 51.46 55.67 59.19 60.54 62.48 63.69 65.71 67.86 68.71
52.13 51.09 58.28 62.66 66.45 65.90 64.60 56.92 48.39 53.67 53.90 55.74 54.60 55.02 53.84 55.50 54.63 53.89 54.71 53.24 56.20 54.88 52.26 49.74 48.06 53.54 54.94 53.06 50.14 51.62 51.82 48.17 43.45 45.19 47.00 54.43 49.03 54.26 61.31 62.02 62.35 63.62 64.93 67.11 68.28
51.34 62.90 64.40 66.95 66.52 65.87 60.69 51.76 52.08 54.28 55.46 54.38 55.11 52.32 52.61 54.26 54.80 53.92 53.18 53.48 55.33 56.33 51.56 50.08 49.67 55.92 55.57 55.04 53.71 50.79 50.10 53.75 49.27 50.78 47.80 49.94 54.47 57.99 59.91 60.46 62.06 62.76 63.77 64.27 66.59
60.45 65.25 64.78 66.57 67.05 64.23 57.83 50.41 55.37 57.06 56.49 55.81 51.81 54.32 51.23 53.18 53.04 52.92 53.33 55.64 55.12 57.14 57.84 54.34 49.27 54.33 54.54 54.73 54.08 51.81 54.79 49.64 50.43 45.15 43.60 47.93 51.23 52.68 58.01 59.65 61.50 62.25 63.14 64.38 66.59
62.02 62.75 65.57 66.92 65.70 60.59 54.13 55.05 56.71 58.56 57.53 55.25 54.12 53.49 54.17 52.72 53.77 53.41 53.24 55.62 57.32 56.78 57.65 55.67 53.19 52.13 54.75 52.75 50.74 50.23 49.80 51.68 51.95 50.21 46.03 44.86 49.78 59.07 57.92 57.31 58.06 62.60 64.32 65.35 65.98
64.33 59.70 66.11 66.42 58.15 58.96 55.82 58.03 52.65 58.03 58.68 57.13 57.39 55.68 54.58 54.92 54.13 53.82 53.29 55.65 57.80 57.90 54.95 56.39 53.69 49.94 51.53 55.33 56.42 53.78 51.33 51.65 49.03 48.38 49.82 49.36 49.81 59.91 60.69 61.30 63.55 60.44 59.46 61.00 66.47
60.68 60.68 64.88 64.38 55.60 57.38 58.99 57.30 57.70 56.47 56.89 56.95 56.14 57.63 58.00 55.29 52.89 55.23 55.65 58.28 58.52 57.13 55.04 56.21 52.69 48.71 50.13 53.20 55.44 53.14 53.17 52.06 52.48 51.99 50.99 47.35 49.92 61.09 60.92 60.32 63.52 62.79 61.43 66.32 66.35
60.24 57.04 61.33 61.20 60.28 56.54 55.73 55.49 55.38 58.49 56.95 56.91 56.18 57.38 56.00 54.91 56.66 54.53 55.18 57.87 59.06 58.18 61.98 60.64 52.85 50.68 47.31 50.98 53.72 51.80 53.70 52.53 50.94 49.26 49.83 49.95 52.59 57.29 58.69 59.16 62.90 65.80 66.29 65.96 68.54
59.38 56.20 55.80 54.81 55.90 55.41 54.28 53.62 52.93 53.28 57.01 57.93 56.12 55.67 54.47 52.78 54.01 54.06 56.28 57.18 59.03 61.18 59.25 55.89 50.75 52.32 52.50 52.69 52.88 52.72 52.79 53.39 51.03 51.52 50.10 51.93 52.96 57.36 59.29 60.04 63.53 65.83 66.60 66.89 68.74
55.98 54.75 56.05 54.51 55.92 53.66 51.50 52.20 52.14 53.35 53.90 53.23 52.54 52.82 53.94 53.25 54.07 52.53 54.25 54.74 54.59 58.45 57.78 58.52 52.60 54.39 50.88 52.73 52.57 51.13 52.65 53.31 53.77 52.52 51.95 52.45 53.04 59.57 59.75 65.04 61.79 64.16 66.39 67.51 68.61
58.69 59.29 57.72 53.48 54.46 52.13 52.80 52.87 52.42 52.82 53.02 53.89 53.32 52.53 51.73 53.58 54.79 54.95 55.40 56.23 56.48 55.00 55.82 54.94 53.89 52.27 48.64 53.28 52.60 48.94 52.19 53.18 53.98 55.15 53.14 51.18 55.67 60.90 60.78 62.17 65.09 67.62 67.34 67.98 69.10
MSLP
1016.21 1015.97 1015.75 1015.51 1015.24 1014.98 1014.74 1014.52 1014.24 1013.94 1013.69 1013.39 1013.10 1012.84 1012.58 1012.35 1011.69 1011.07 1008.84 1006.91 1006.78 1007.01 1007.44 1006.53 1005.86 1004.80 1004.02 1003.21 1002.92 1003.70 1006.92 1007.26 1005.71 1005.52 1006.04 1005.80 1005.86 1006.09 1006.10 1005.81 1005.25 1005.07 1005.80 1007.73 1009.09
1016.26 1015.98 1015.77 1015.52 1015.22 1014.94 1014.68 1014.41 1014.15 1013.82 1013.53 1013.28 1012.98 1012.74 1012.47 1012.26 1010.95 1008.60 1006.47 1006.54 1006.74 1007.01 1006.94 1005.68 1004.24 1003.66 1003.11 1002.48 1002.69 1003.47 1005.79 1006.04 1004.99 1004.86 1005.42 1005.78 1005.68 1006.31 1006.38 1006.18 1005.88 1005.79 1006.70 1008.09 1009.13
1016.33 1016.00 1015.75 1015.50 1015.19 1014.86 1014.59 1014.34 1014.00 1013.74 1013.45 1013.12 1012.83 1012.60 1012.39 1012.13 1009.74 1006.01 1005.46 1006.13 1006.54 1006.86 1006.28 1004.76 1003.88 1003.29 1002.55 1001.85 1002.95 1003.53 1005.77 1005.17 1005.24 1005.38 1005.19 1005.75 1006.15 1006.93 1007.60 1007.85 1007.10 1006.12 1006.87 1008.00 1008.81
1016.36 1016.02 1015.68 1015.39 1015.08 1014.73 1014.35 1014.10 1013.83 1013.54 1013.28 1013.00 1012.70 1012.48 1012.26 1011.25 1007.65 1005.74 1006.30 1006.30 1006.38 1006.42 1006.14 1004.60 1003.67 1002.84 1002.14 1002.53 1002.73 1004.68 1006.59 1006.32 1005.70 1005.44 1005.82 1005.95 1006.95 1007.94 1008.54 1009.58 1008.19 1006.25 1006.60 1007.42 1008.23
1016.35 1015.99 1015.67 1015.31 1014.94 1014.59 1014.24 1013.87 1013.56 1013.36 1013.07 1012.79 1012.54 1012.39 1011.95 1009.41 1005.99 1005.96 1006.29 1006.48 1006.32 1006.36 1005.58 1004.28 1003.28 1002.38 1001.95 1002.37 1002.80 1004.57 1005.59 1004.80 1005.46 1005.56 1006.12 1006.34 1007.29 1008.08 1009.13 1008.99 1007.43 1006.42 1006.49 1006.80 1007.47
1016.35 1015.95 1015.60 1015.22 1014.81 1014.40 1014.00 1013.62 1013.24 1013.00 1012.80 1012.55 1012.42 1012.39 1010.94 1007.31 1004.22 1005.16 1005.53 1005.92 1005.49 1005.48 1004.89 1004.04 1003.08 1002.61 1002.46 1001.88 1002.76 1004.18 1004.57 1004.68 1005.02 1005.28 1005.78 1006.20 1006.90 1007.42 1008.94 1008.01 1007.71 1006.63 1006.52 1006.49 1006.91
1016.34 1015.92 1015.47 1015.06 1014.63 1014.19 1013.76 1013.29 1012.91 1012.60 1012.43 1012.31 1012.30 1011.72 1009.06 1005.57 1003.85 1003.96 1004.72 1004.95 1005.01 1004.64 1004.17 1003.35 1003.03 1002.84 1002.33 1002.06 1002.32 1003.64 1004.25 1005.13 1005.26 1005.72 1005.52 1005.91 1006.56 1006.72 1006.92 1006.88 1006.68 1006.44 1006.51 1006.28 1006.69
1016.22 1015.79 1015.39 1014.94 1014.49 1014.00 1013.48 1012.96 1012.52 1012.24 1012.11 1012.07 1012.10 1010.97 1007.11 1004.10 1004.12 1003.80 1003.92 1004.20 1004.41 1004.25 1003.81 1003.25 1003.13 1003.15 1002.81 1002.09 1002.16 1002.45 1002.73 1004.63 1005.63 1004.76 1004.75 1005.44 1005.89 1005.96 1006.54 1006.87 1006.66 1006.20 1006.36 1006.63 1006.68
1016.13 1015.66 1015.18 1014.75 1014.29 1013.82 1013.27 1012.66 1012.13 1011.88 1011.83 1011.90 1011.49 1009.59 1005.32 1003.53 1003.57 1003.59 1003.49 1003.46 1003.69 1003.70 1003.54 1003.55 1003.68 1003.23 1002.46 1001.74 1001.77 1002.53 1003.28 1003.55 1004.32 1003.90 1003.68 1004.76 1004.87 1005.33 1005.83 1006.36 1006.33 1006.08 1006.33 1006.22 1006.58
1015.96 1015.47 1014.97 1014.52 1014.11 1013.61 1012.95 1012.52 1011.97 1011.87 1011.58 1010.81 1009.35 1007.95 1004.31 1002.84 1002.74 1003.07 1003.06 1003.14 1003.21 1003.44 1003.43 1003.50 1003.47 1002.85 1002.09 1001.09 1000.65 1001.34 1001.67 1002.08 1002.28 1003.35 1003.10 1003.46 1003.82 1004.42 1005.25 1005.64 1005.54 1006.18 1006.54 1006.56 1006.71
1015.74 1015.19 1014.74 1014.27 1013.89 1013.55 1012.71 1011.40 1011.36 1010.11 1008.92 1006.45 1004.85 1003.68 1001.57 1002.05 1001.72 1002.50 1002.68 1002.98 1002.80 1003.08 1002.93 1002.81 1002.64 1001.87 1000.98 1000.20 999.80 999.82 1000.21 1000.17 1000.53 1001.31 1001.97 1002.18 1002.52 1003.18 1003.88 1004.72 1005.30 1005.65 1005.51 1005.88 1006.21
1015.44 1014.89 1014.34 1013.94 1013.58 1013.31 1012.99 1009.70 1006.22 1005.73 1005.18 1004.57 1003.68 1002.70 1001.73 1001.06 1001.32 1001.79 1002.27 1002.77 1002.77 1002.43 1002.26 1002.36 1001.38 1001.08 1000.56 1000.06 999.62 999.84 1000.03 999.63 999.60 1000.35 1001.01 1001.29 1001.47 1001.58 1002.89 1004.07 1004.72 1004.94 1005.10 1005.45 1005.42
1015.16 1014.55 1014.00 1013.59 1013.16 1012.54 1010.05 1007.51 1005.96 1005.47 1004.29 1001.91 1001.36 1001.58 1001.13 1001.35 1001.00 1001.16 1001.94 1002.23 1002.12 1002.06 1001.62 1001.03 1000.36 999.85 999.81 999.91 999.43 999.67 999.67 999.14 999.36 999.74 999.96 1000.75 1001.28 1002.60 1004.08 1003.49 1003.92 1004.87 1004.91 1004.49 1004.45
1014.85 1014.32 1013.80 1013.32 1013.01 1008.66 1007.46 1006.26 1005.87 1005.40 1003.59 999.83 999.31 999.75 1000.30 1000.73 1000.67 1000.34 1000.94 1001.75 1001.66 1001.30 1000.80 1000.33 1000.00 999.59 999.45 999.50 999.44 999.10 998.88 998.90 999.31 999.69 999.39 1000.34 1001.01 1003.20 1004.97 1004.87 1004.38 1003.31 1004.17 1003.51 1003.89
1014.42 1013.99 1013.58 1013.57 1011.50 1007.93 1005.85 1005.80 1005.63 1005.16 1002.17 999.06 998.99 999.09 999.44 1000.02 999.30 999.98 1000.08 1001.04 1000.95 1000.67 1000.89 1000.01 999.45 999.24 999.24 999.16 999.23 999.19 998.91 999.47 999.73 999.74 999.58 999.70 1000.84 1002.00 1003.05 1003.57 1002.00 1000.49 1001.91 1002.42 1003.00
1013.96 1013.52 1013.23 1012.18 1011.10 1007.72 1006.14 1005.82 1005.66 1004.17 1000.15 998.56 998.97 999.36 999.36 999.48 999.56 998.96 999.67 1000.29 1000.62 1000.75 1000.16 999.56 999.44 998.82 998.74 998.74 998.78 999.14 998.97 999.34 999.62 999.52 999.24 998.61 999.94 999.91 1001.15 999.88 999.21 999.52 1000.16 1000.84 1001.63
1013.36 1013.00 1012.87 1010.21 1007.22 1006.12 1006.26 1005.76 1004.48 1001.94 998.60 997.96 998.08 998.38 999.03 998.76 999.36 999.02 999.50 999.98 1000.33 1000.17 999.74 999.38 998.81 998.77 998.64 998.90 998.81 999.01 999.00 999.06 998.90 998.70 998.31 999.15 999.56 997.86 998.68 998.61 997.87 997.67 998.29 999.19 1000.15
1012.57 1012.41 1010.29 1009.16 1007.12 1006.99 1006.27 1005.40 1003.00 999.85 998.25 998.16 998.44 998.04 998.01 998.27 998.35 998.98 999.18 999.33 999.53 999.63 998.90 997.89 997.25 997.11 997.81 998.16 998.66 998.28 998.64 998.44 998.04 997.85 998.28 998.39 998.96 997.83 996.79 996.65 996.60 996.92 997.10 998.02 998.98
1011.78 1010.11 1008.87 1007.01 1007.23 1006.77 1005.91 1004.05 1001.52 999.71 999.46 998.89 998.92 998.15 997.89 997.57 997.73 997.77 998.18 998.21 998.26 998.51 998.75 997.85 996.78 996.01 996.28 997.23 998.22 998.13 997.86 998.36 998.00 997.39 996.90 996.32 996.05 995.68 995.82 996.12 996.45 997.00 997.20 997.77 998.30
1011.01 1008.09 1006.02 1006.14 1006.60 1006.58 1005.35 1003.15 1001.24 1000.47 1000.38 1000.42 999.86 998.93 997.88 996.91 997.02 997.31 997.19 997.33 997.34 997.36 997.59 997.62 997.20 996.60 996.14 996.84 997.35 997.82 997.76 997.63 997.37 997.27 996.78 996.13 996.06 996.86 997.23 997.44 996.82 997.09 997.82 998.31 998.47
1010.25 1006.54 1005.44 1005.93 1006.26 1005.68 1004.06 1002.13 1000.93 1000.69 1001.38 1001.30 1000.46 999.85 998.91 998.27 997.53 996.89 996.64 996.78 996.39 996.36 996.62 996.96 997.07 997.00 996.31 996.08 996.45 997.13 997.37 997.31 997.08 996.99 996.64 996.29 996.54 997.45 997.73 997.37 998.59 997.60 998.44 998.39 998.70
1008.77 1005.18 1005.16 1005.36 1005.23 1004.00 1002.84 1001.69 1002.27 1001.45 1001.62 1001.41 1001.32 1001.00 1000.52 999.96 999.12 998.16 997.34 996.74 996.85 997.03 996.36 996.72 996.70 996.58 996.49 996.01 995.85 996.05 996.22 996.65 996.76 996.78 996.67 996.28 995.57 995.93 996.77 996.91 996.79 997.88 1000.93 999.18 998.34
1009.10 1005.21 1004.79 1004.92 1003.98 1002.65 1001.75 1002.01 1002.08 1002.32 1001.82 1001.64 1001.52 1001.40 1001.06 1000.79 1000.29 999.69 998.99 998.33 997.92 997.99 998.55 998.20 997.50 996.88 996.48 996.04 995.41 995.39 995.58 995.84 995.86 996.16 995.71 995.64 995.89 996.47 996.13 996.10 996.76 998.24 999.31 997.90 998.83
1009.56 1005.29 1004.24 1004.46 1004.18 1003.90 1003.08 1002.95 1002.58 1002.32 1002.91 1003.13 1002.77 1002.70 1002.44 1001.85 1001.37 1000.65 1000.08 999.70 999.23 998.85 999.41 999.57 999.14 998.66 997.50 996.15 995.49 995.29 995.13 995.17 995.35 994.95 994.88 994.74 994.96 995.48 995.52 995.75 996.37 997.24 998.00 998.80 999.19
1009.05 1006.89 1006.85 1004.91 1004.49 1005.09 1004.91 1004.41 1003.86 1003.33 1003.12 1003.11 1003.53 1003.48 1003.11 1002.44 1002.00 1001.41 1000.87 1000.46 1000.29 1000.19 1000.37 1000.07 999.78 999.84 998.88 997.64 996.56 996.04 996.11 995.07 994.78 994.68 994.38 994.19 994.24 995.40 995.81 995.92 996.07 996.79 998.17 999.14 999.28
1010.82 1009.91 1008.80 1007.29 1006.14 1005.80 1005.09 1004.70 1004.43 1004.55 1004.94 1004.84 1004.80 1004.48 1004.16 1003.72 1003.54 1003.17 1002.77 1002.40 1002.13 1001.57 1001.46 1001.38 1000.94 1000.69 999.39 998.76 997.56 996.37 995.65 995.34 994.23 994.11 994.08 993.85 993.75 994.20 995.58 995.92 997.04 997.55 997.70 998.78 998.90
1013.00 1011.90 1010.51 1008.27 1006.68 1006.25 1005.68 1006.04 1006.14 1006.29 1006.30 1005.92 1005.53 1005.54 1005.29 1004.83 1004.82 1004.75 1004.40 1003.83 1003.33 1003.06 1002.31 1002.40 1001.96 1001.92 1000.52 999.74 998.48 996.75 995.21 994.63 994.34 993.46 993.42 993.23 993.36 994.30 995.47 996.24 996.71 996.44 997.49 998.01 998.52
Wind_Speed
13 12 13 13 13 12 11 11 12 11 11 12 12 12 12 11 16 8 11 5 7 14 3 13 15 14 15 15 6 5 6 5 3 7 3 6 8 6 1 7 6 5 17 19 20
14 13 13 13 13 12 12 11 12 12 11 11 12 12 11 10 11 17 14 10 11 11 8 15 14 11 11 14 0 2 5 13 11 7 2 5 6 5 5 3 5 14 20 21 17
14 14 14 14 13 13 12 11 11 12 11 11 11 11 10 11 10 17 16 14 13 11 16 18 14 11 16 8 7 12 3 16 7 8 5 7 4 7 6 6 14 15 12 25 17
15 15 15 14 14 14 14 13 12 12 12 11 11 10 9 8 3 6 4 7 11 11 13 18 11 15 13 10 4 11 9 26 6 6 4 3 9 15 10 5 19 11 13 20 16
15 15 15 15 15 15 14 14 13 13 12 11 10 8 7 9 18 10 10 7 9 11 14 16 14 14 13 11 9 12 8 13 6 1 5 7 6 9 6 5 18 12 9 11 13
15 15 15 15 16 15 15 14 14 13 12 11 9 6 7 15 10 15 13 12 13 14 15 15 13 10 10 12 5 5 6 8 14 4 6 5 9 11 14 20 20 11 11 11 15
16 15 15 16 17 17 17 17 16 15 12 10 7 7 12 17 1 14 14 14 16 16 16 16 11 12 15 7 3 11 13 17 5 11 4 6 5 5 12 16 8 13 9 8 11
16 16 16 16 17 18 18 17 14 11 9 8 6 8 9 15 20 9 11 14 15 15 17 15 11 11 15 15 8 14 14 7 8 9 5 12 3 9 12 9 9 11 10 10 13
16 16 16 16 18 16 17 17 12 9 7 6 7 10 18 7 14 11 14 15 16 16 12 10 8 15 18 16 7 2 4 0 8 7 8 10 2 10 15 15 15 13 3 8 9
17 16 16 16 17 16 18 12 6 4 7 9 13 10 16 15 15 18 16 14 12 12 13 11 12 13 14 14 10 6 13 15 12 12 9 9 6 14 16 18 15 9 13 10 11
17 17 16 16 15 14 14 6 7 8 14 13 14 13 6 17 11 16 17 15 10 12 14 15 12 14 18 18 21 9 9 13 9 11 4 9 14 18 19 14 14 14 18 12 18
18 17 17 15 15 14 8 8 11 12 11 26 23 20 16 1 9 16 18 15 16 17 14 14 17 16 18 18 17 9 14 16 1 4 7 12 13 8 18 18 17 18 15 18 15
18 18 17 15 17 7 12 16 13 11 9 16 25 22 16 8 13 17 18 18 16 17 17 17 17 18 18 15 18 10 14 17 3 7 6 5 13 6 14 11 18 17 19 20 13
19 17 16 17 6 8 13 16 10 8 8 13 17 19 19 14 17 17 22 17 17 20 17 15 16 18 9 12 17 14 13 9 9 12 14 10 10 7 4 18 19 21 21 19 13
19 17 16 7 13 7 7 3 6 6 7 10 12 1 11 18 2 18 21 17 20 18 15 16 16 15 16 20 12 14 15 1 14 14 18 13 9 9 17 15 32 25 23 19 20
20 16 12 7 8 15 10 5 7 8 10 10 11 10 14 20 18 8 15 15 13 20 19 19 15 15 15 14 14 18 16 9 16 14 14 14 11 11 8 5 15 13 23 22 20
20 14 7 10 6 5 9 7 7 9 3 8 10 13 14 16 18 16 17 17 14 15 16 18 20 18 13 12 17 16 13 10 13 12 12 4 14 4 15 16 18 17 20 23 21
20 13 12 9 9 6 6 8 9 13 11 6 3 10 11 15 19 20 16 15 20 20 17 14 14 23 17 19 15 17 18 12 17 8 6 18 12 12 14 15 8 4 6 17 20
23 6 6 8 10 6 8 10 11 7 12 13 12 9 13 15 15 17 23 16 17 20 19 18 19 14 19 15 15 19 15 16 22 20 15 12 5 8 8 6 11 8 8 5 16
6 9 4 5 7 7 8 14 16 6 9 10 16 16 13 14 14 16 18 19 18 18 19 18 17 18 4 8 16 18 16 15 11 14 14 11 4 8 11 11 7 11 9 6 9
6 7 7 9 7 7 8 14 10 8 5 10 14 16 15 14 18 15 17 15 18 16 17 19 15 17 17 13 14 13 17 19 17 11 12 11 2 6 8 11 16 12 5 11 9
9 4 7 7 8 9 11 6 4 8 12 6 9 14 13 17 17 19 17 16 13 18 15 16 16 16 20 21 11 14 18 20 13 14 13 13 13 14 13 14 11 22 20 21 10
7 3 6 7 9 9 8 4 9 8 11 9 8 12 13 14 15 15 18 18 22 10 6 12 9 11 16 17 19 16 16 20 17 17 17 12 4 8 12 4 6 24 22 7 4
7 4 6 7 8 10 12 11 10 2 3 9 14 11 15 15 14 17 16 18 20 17 7 4 12 17 17 16 17 1 19 17 22 16 15 14 8 11 11 11 11 11 13 10 8
4 6 7 6 7 10 11 14 12 13 11 3 6 12 14 14 16 16 18 15 17 17 13 9 19 20 24 28 27 20 18 24 20 20 19 16 10 10 6 7 7 10 13 13 12
7 6 11 11 9 10 10 10 10 10 14 13 15 17 19 17 11 19 20 18 15 19 15 11 12 17 26 26 28 28 20 23 22 20 22 22 17 14 16 7 13 21 16 14 14
8 8 8 10 8 10 7 11 11 12 10 10 12 11 13 15 19 18 18 19 20 18 18 16 13 13 18 20 21 26 26 23 21 19 20 19 15 14 7 6 13 12 16 15 15
Wind_Direction
352 351 348 346 345 344 344 340 331 330 323 317 312 308 308 309 295 231 251 246 183 174 183 261 219 250 252 257 201 221 110 229 298 4 145 166 183 179 0 255 50 46 95 125 124
352 352 349 345 344 342 340 336 330 326 321 316 309 307 310 322 276 260 239 136 144 164 218 235 229 223 258 250 241 28 64 279 12 45 39 196 207 163 194 199 128 97 107 123 132
352 350 346 343 342 337 336 332 326 320 318 312 307 306 309 302 271 238 154 153 166 186 244 266 282 273 263 258 44 287 38 344 18 41 337 147 201 166 44 23 307 123 137 137 151
350 347 344 341 339 334 329 325 322 316 312 307 302 303 311 258 279 79 138 169 166 213 241 268 259 264 271 333 285 76 20 278 2 90 47 121 127 75 85 196 275 127 147 136 156
345 344 341 338 334 330 325 321 315 309 302 297 293 298 274 231 250 137 150 163 186 209 239 259 265 279 309 242 37 65 242 234 97 158 127 177 78 125 136 193 273 128 154 173 154
343 340 336 334 331 326 320 315 307 300 293 286 280 288 248 252 100 142 181 175 214 213 240 254 272 341 296 304 58 173 233 333 25 95 143 142 139 120 194 214 242 154 174 174 155
339 337 333 332 329 325 319 311 300 292 284 275 259 257 261 242 17 158 185 199 214 211 242 245 269 296 292 287 346 202 223 88 354 300 190 139 200 240 157 183 161 164 187 148 140
334 333 332 329 328 324 319 313 301 280 270 255 235 240 259 234 238 226 208 201 218 239 249 285 328 281 283 281 259 242 239 112 234 226 180 203 261 201 170 175 184 187 158 204 145
329 327 326 325 328 323 320 315 295 274 243 201 222 228 259 169 210 226 228 213 209 228 239 264 286 273 270 257 268 15 248 271 157 254 167 200 196 209 181 200 203 203 203 165 160
326 324 323 322 327 323 318 292 325 217 222 202 264 262 245 225 208 214 221 227 211 226 230 230 244 251 248 256 241 232 256 216 146 195 211 200 230 180 190 206 215 143 233 174 173
323 320 318 318 321 321 319 208 206 194 217 222 191 222 130 214 185 197 200 214 222 222 229 230 240 240 251 254 283 283 316 287 130 157 223 254 221 195 180 204 200 203 205 200 188
321 318 315 315 314 316 273 252 343 332 291 221 252 228 267 160 173 195 191 207 217 231 220 242 239 244 265 276 282 321 286 280 67 158 228 259 262 212 177 192 196 203 201 210 208
320 318 315 315 316 272 233 258 326 313 279 265 212 229 236 217 224 198 203 206 225 230 245 247 255 234 237 261 268 258 268 282 322 313 287 268 274 68 314 190 187 204 219 208 203
318 317 316 318 286 247 222 236 247 285 277 247 203 209 214 207 241 244 188 213 223 246 242 250 259 265 250 256 270 265 281 315 322 293 285 207 274 135 77 309 281 189 208 218 199
318 315 311 289 321 256 21 305 315 257 278 106 143 126 205 199 306 204 181 204 241 229 238 259 259 247 256 266 260 265 276 257 290 276 276 237 243 157 155 185 250 188 196 200 204
318 315 313 203 221 260 312 279 243 234 246 155 142 196 214 206 227 218 208 203 232 248 265 268 265 273 252 263 248 273 258 302 272 259 262 293 247 142 174 195 219 202 188 191 209
317 309 265 310 315 206 240 242 222 250 104 176 183 187 205 208 217 236 185 213 223 232 247 255 250 248 259 262 270 229 253 250 253 237 260 56 6 210 201 213 217 194 191 183 190
312 308 210 256 301 273 240 223 249 270 246 100 352 291 220 213 202 224 206 229 226 242 264 256 234 212 216 221 250 235 233 249 263 304 288 152 213 135 197 174 156 143 180 178 185
311 207 241 180 218 238 230 223 240 289 5 7 333 264 260 231 256 196 229 229 233 218 244 274 275 311 200 208 214 253 232 259 273 278 277 272 186 188 110 69 145 169 169 171 177
297 260 108 123 164 219 239 252 286 346 352 325 300 296 307 282 201 229 219 223 235 240 227 246 268 276 240 187 218 238 261 239 237 272 280 273 63 82 34 2 283 164 173 169 165
242 240 112 134 186 229 243 246 255 50 46 310 302 298 310 297 310 293 228 249 249 233 234 242 249 263 278 211 225 212 239 258 271 274 294 293 107 129 143 101 306 222 95 148 163
294 289 122 165 224 217 244 289 334 308 294 286 275 282 288 297 302 301 303 300 28 319 282 243 246 242 254 266 237 234 237 225 246 255 257 284 312 149 185 191 202 115 138 275 148
280 353 144 221 265 289 244 285 287 299 299 309 301 308 317 299 296 293 288 300 305 309 5 353 297 277 259 254 252 226 224 250 235 241 263 272 194 168 204 188 180 135 192 127 165
276 280 153 202 261 284 323 320 298 123 271 296 291 312 298 288 276 275 275 279 287 312 87 306 278 272 280 280 273 321 279 223 247 241 244 255 223 174 195 215 153 127 122 138 166
289 27 10 310 34 343 316 315 305 292 310 297 291 295 296 303 304 304 303 328 316 319 325 248 263 269 275 281 287 284 221 263 234 259 262 260 231 168 345 308 139 137 144 159 157
345 350 344 298 299 284 270 256 296 353 355 328 319 313 321 318 296 303 314 311 316 300 300 296 310 298 255 264 274 279 262 265 265 227 244 256 258 144 192 175 135 210 157 170 152
10 344 296 292 287 312 24 342 330 321 304 296 321 319 304 303 337 326 309 299 295 290 284 293 294 296 290 288 277 261 259 258 244 262 231 246 255 108 108 131 166 170 167 166 160